STARLINK-34175, 64169

Orbit data source: Space-Track

STARLINK-34175, 64169 is a payload satellite owned by SpaceX/Seattle (US) in SSO that was launched on Tue, 27 May 2025 UTC via an FALCON 9 launch vehicle from the Air Force Western Test Range (AFWTR). Payload-class satellites include a variety of spacecraft equipped with specific instruments for various scientific and technological missions. These include communications satellites like Starlink; space stations such as the ISS; scientific satellites like the Hubble; Earth observation satellites from companies like Planet Labs, Umbra, and HawkEye 360; GPS; miniature CubeSats for education and research; and military/defense satellites.

Loading next visibility...
Identifier
64169, 2025-112Z
Orbit
SSO
Country
Flag of USUS
Related business
Manufacturer
SpaceX/Seattle
Mission
Operational Commercial Communications
Bus & Motor
STARLINK V2MO, Unknown motor
Mass
575 kg wet, ~530 kg dry
Launch date (UTC)
2025-05-27 (1 year ago)
Launch vehicle
FALCON 9
Launch site
Air Force Western Test Range (AFWTR)
Object type
Payload
Rocket body
Debris
Shape & HBR
Box + 1 Pan, 17.7 m
Radar Cross Section
41.120 m², Large (>1 m²)

Expand to show TLE details & history
Last TLE update: 18 hours ago

TLE from 18 hours ago
0 STARLINK-34175
1 64169U 25112Z   26236.38916502  .00011234  00000-0  34984-3 0  9992
2 64169  97.2842 283.8529 0001348  95.7863 264.3533 15.33440532 68595
Epoch: 2026-08-24T09:20Z
TLE epoch observation values (Epoch: 2026-08-24T09:20:23.857Z)
Latitude
-0.00008°
Longitude
171.08194°
Altitude
468.759 km
Speed
7.632 km/s
True Right ascension
18h 55m 24s
True Declination
0° 00' 00"
Sunlit
Object was in full shadow at epoch
Visualization orbit readout
Latitude
Unknown
Longitude
Unknown
Altitude
Unknown
Speed
Unknown
Apparent Right ascension
Unknown
Apparent Declination
Unknown
Sunlit
N/A
Visualization observer readout
Local Sidereal Time
18:45:27
Azimuth
Unknown
Elevation
Unknown
Doppler factor
Unknown
Orbital elements
Apogee altitude
463.421 km
Perigee altitude
461.577 km
Semi-major axis
6,840.636 km
Eccentricity
0.00013
Inclination
97.2842°
RAAN
283.8529°
Arg. of periapsis
95.7863°
True anomaly
264.33793°
Mean anomaly
264.3533°
Eccentric anomaly
264.34561°
Mean motion
3.83618 °/min
Orbital period
93.84 mins
BSTAR
0.00034984
Loading maneuver chart data...
Computing Atmospheric mass density...
Loading historical data...
Loading historical data...
Loading historical data...
Loading historical data...
Loading historical data...
Loading historical data...
Loading historical data...

Documentation

Showing up to 5 results
|